Regional Weather Roundup
Issued by NWS

Home | Current Version | Previous Version | Graphics & Text | Print | Product List | Glossary On
Versions: 1 2 3 4 5 6 7 8 9 10 11 12 13 14 15 16 17 18 19 20 21 22 23 24 25 26 27 28 29 30 31 32 33 34 35 36 37 38 39 40 41 42 43 44 45 46 47 48 49 50
000
ASUS43 KDMX 311707
RWRIA

WEATHER ROUNDUP FOR IOWA
NATIONAL WEATHER SERVICE DES MOINES IA
1200 PM CDT MON AUG 31 2015

NOTE: "FAIR" INDICATES FEW OR NO CLOUDS BELOW 12,000 FEET WITH NO
SIGNIFICANT WEATHER AND/OR OBSTRUCTIONS TO VISIBILITY.

* - THESE STATIONS ARE NOT NWS STATIONS...THUS NOT UNDER NWS
QUALITY CONTROL.  THEY ALSO DO NOT REPORT WEATHER SUCH
AS PRECIPITATION OR FOG.

IAZ001>003-012>014-020>022-031>034-043>046-311800-
   NORTHWEST IOWA

CITY           SKY/WX    TMP DP  RH WIND       PRES   REMARKS
CARROLL *      MOSUNNY   81  73  78 SW13      29.98S HX  85
CHEROKEE *     PTSUNNY   79  72  78 S15       29.96S HX  82
DENISON *      MOSUNNY   77  72  83 S10       29.96F
LE MARS *      SUNNY     79  72  78 S14G21    29.94F HX  82
ORANGE CITY *  MOSUNNY   77  70  78 S15       29.94F
SHELDON *      PTSUNNY   77  70  78 S13G21    29.94S
SIOUX CITY     MOSUNNY   81  68  64 S16       29.94S HX  84
SPENCER        PTSUNNY   77  69  76 SW15      29.97S
STORM LAKE *   SUNNY     77  70  78 S14G21    29.98S
$$

IAZ055>058-069>071-079>083-090>094-311800-
   SOUTHWEST IOWA

CITY           SKY/WX    TMP DP  RH WIND       PRES   REMARKS
ATLANTIC *     PTSUNNY   79  72  78 SW12      29.99S HX  82
AUDUBON *      MOSUNNY   79  72  78 S8        30.00S HX  82
CLARINDA *     PTSUNNY   79  73  83 S5        30.01S HX  82
COUNCIL BLFS * MOSUNNY   79  70  73 S14       29.98S HX  81
CRESTON *      PTSUNNY   79  73  83 S10       30.02S HX  82
LAMONI         PTSUNNY   83  74  74 S10       30.01S HX  89
RED OAK *      PTSUNNY   81  73  78 S10       29.99F HX  85
SHENANDOAH *   PTSUNNY   81  73  78 SW7       29.99F HX  85
$$

IAZ047>049-059>061-072>074-084-311800-
   CENTRAL IOWA

CITY           SKY/WX    TMP DP  RH WIND       PRES   REMARKS
AMES           MOSUNNY   81  73  76 S10       29.99F HX  86
ANKENY *       SUNNY     82  75  78 S7        29.99F HX  89
CHARITON *     MOSUNNY   84  73  70 S12       30.01S HX  91
DES MOINES     MOSUNNY   83  72  69 S9        29.99F HX  88
GRINNELL*      SUNNY     82  72  69 SE9       30.02F HX  87
KNOXVILLE *    SUNNY     82  73  74 S10       30.00S HX  88
MARSHALLTOWN   MOSUNNY   81  73  76 SE8       30.00F HX  86
PELLA *        SUNNY     84  77  79 S6        30.02S HX  94
PERRY *          N/A     82  75  78 S7        29.99S HX  89
$$

IAZ004>006-015-016-023>025-035-036-311800-
   NORTH CENTRAL IOWA

CITY           SKY/WX    TMP DP  RH WIND       PRES   REMARKS
ALGONA *       PTSUNNY   79  72  78 SW14G21   29.98S HX  82
CLARION *      MOSUNNY   81  73  78 S12       29.99S HX  85
ESTHERVILLE    MOSUNNY   75  70  84 S13       29.96S
FORT DODGE *   SUNNY     81  72  74 S12       29.99F HX  84
MASON CITY     MOSUNNY   80  73  79 S13       30.00F HX  84
FOREST CITY *  CLOUDY    77  72  83 S12       29.99S
IOWA FALLS *     N/A     81  73  78 S10       30.01F HX  85
$$

IAZ007>011-017>019-026>030-037>042-050>054-066-311800-
   NORTHEAST IOWA

CITY           SKY/WX    TMP DP  RH WIND       PRES   REMARKS
CEDAR RAPIDS   SUNNY     80  73  79 S10       30.03S HX  84
CHARLES CITY * SUNNY     79  75  89 S8G15     30.02S HX  82
CLINTON *      SUNNY     81  72  74 SE8       30.07F HX  84
DECORAH *      MOSUNNY   77  72  83 VRB7      30.02F
DUBUQUE        SUNNY     78  71  79 S9        30.06S HX  80
MONTICELLO *   SUNNY     81  72  74 S8        30.04S HX  84
OELWEIN *      SUNNY     79  73  83 S8        30.03F HX  82
WATERLOO       SUNNY     81  72  74 S12       30.00F HX  85
$$

IAZ064-065-067-068-078-311800-
   EAST CENTRAL IOWA

CITY           SKY/WX    TMP DP  RH WIND       PRES   REMARKS
DAVENPORT      SUNNY     82  71  69 SE6       30.05F HX  86
IOWA CITY      SUNNY     83  72  69 SE12      30.04S HX  88
MT. PLEASANT * SUNNY     86  70  58 SE7       30.03F HX  90
MUSCATINE *    SUNNY     84  70  61 SE7       30.03F HX  88
QUAD CITIES    SUNNY     84  71  65 VRB7      30.04F HX  89
$$

IAZ062-063-075>077-085>089-095>099-311800-
   SOUTHEAST IOWA

CITY           SKY/WX    TMP DP  RH WIND       PRES   REMARKS
BURLINGTON     SUNNY     83  74  74 SE6       30.04F HX  89
FAIRFIELD *    SUNNY     84  72  65 S12       30.02F HX  89
FORT MADISON * SUNNY     84  75  74 S6        30.04F HX  92
KEOKUK *       SUNNY     86  72  62 S8        30.03S HX  92
OSKALOOSA *      N/A     84  72  65 S8        30.02S HX  89
CENTERVILLE *  SUNNY     82  73  74 S9        30.03S HX  88
OTTUMWA        SUNNY     84  74  71 S9        30.00S HX  91
WASHINGTON *     N/A    N/A N/A N/A MISG        N/A
$$

ABBREVIATIONS USED IN REMARKS
   TC - TEMPERATURES IN CELSIUS
  WCI - WIND CHILL INDEX
   HX - HEAT INDEX
  VSB - VISIBILITY
$$




USA.gov is the U.S. government's official web portal to all federal, state and local government web resources and services.